| time (UTC) | temp F | wind direction | speed MPH | gust MPH | rain 1hr in | rain 24hr in | rain mn in | humidity % | barometer mb |
| 20260901030147 | 62 | 155 | 0.0 | 3.0 | 0.00 | 0.00 | 0.00 | 79 | 1009.1 |
| 20260901023031 | 64 | 157 | 0.0 | 1.0 | 0.00 | 0.00 | 0.00 | 76 | 1008.8 |
| 20260901021529 | 66 | 157 | 2.0 | 4.0 | 0.00 | 0.00 | 0.00 | 76 | 1008.7 |
| 20260901020031 | 67 | 164 | 2.0 | 4.0 | 0.00 | 0.00 | 0.00 | 76 | 1008.7 |
| 20260901014530 | 72 | 237 | 1.0 | 2.0 | 0.00 | 0.00 | 0.00 | 70 | 1008.6 |
| 20260901013031 | 77 | 316 | 0.0 | 0.0 | 0.00 | 0.00 | 0.00 | 67 | 1008.6 |
| 20260901011533 | 81 | 5 | 0.0 | 0.0 | 0.00 | 0.00 | 0.00 | 62 | 1008.7 |
| 20260901004533 | 82 | 22 | 0.0 | 0.0 | 0.00 | 0.00 | 0.00 | 56 | 1008.8 |
| 20260901003034 | 82 | 22 | 0.0 | 0.0 | 0.00 | 0.00 | 0.00 | 51 | 1009.0 |
| 20260901001644 | 85 | 56 | 0.0 | 3.0 | 0.00 | 0.00 | 0.00 | 42 | 1009.1 |
| 20260901000030 | 85 | 84 | 0.0 | 4.0 | 0.00 | 0.00 | 0.00 | 41 | 1009.2 |
| 20260831234545 | 87 | 78 | 0.0 | 5.0 | 0.00 | 0.00 | 0.00 | 36 | 1009.4 |
| 20260831233110 | 86 | 58 | 1.0 | 4.0 | 0.00 | 0.00 | 0.00 | 33 | 1009.6 |
| 20260831231535 | 87 | 63 | 1.0 | 6.0 | 0.00 | 0.00 | 0.00 | 34 | 1009.8 |
| 20260831230144 | 87 | 27 | 1.0 | 7.0 | 0.00 | 0.00 | 0.00 | 31 | 1010.0 |
| 20260831224532 | 87 | 56 | 2.0 | 7.0 | 0.00 | 0.00 | 0.00 | 31 | 1010.2 |
| 20260831223031 | 86 | 64 | 2.0 | 7.0 | 0.00 | 0.00 | 0.00 | 31 | 1010.5 |
| 20260831221531 | 85 | 70 | 3.0 | 9.0 | 0.00 | 0.00 | 0.00 | 31 | 1010.7 |
| 20260831220108 | 84 | 46 | 3.0 | 10.0 | 0.00 | 0.00 | 0.00 | 32 | 1010.9 |
| 20260831214530 | 84 | 42 | 4.0 | 10.0 | 0.00 | 0.00 | 0.00 | 33 | 1011.2 |
| 20260831213033 | 83 | 64 | 2.0 | 9.0 | 0.00 | 0.00 | 0.00 | 35 | 1011.4 |
| 20260831210029 | 81 | 62 | 3.0 | 9.0 | 0.00 | 0.00 | 0.00 | 37 | 1011.9 |
| 20260831204533 | 80 | 47 | 4.0 | 10.0 | 0.00 | 0.00 | 0.00 | 38 | 1012.0 |
| 20260831203031 | 79 | 49 | 4.0 | 11.0 | 0.00 | 0.00 | 0.00 | 39 | 1012.3 |
| 20260831201532 | 78 | 42 | 4.0 | 10.0 | 0.00 | 0.00 | 0.00 | 40 | 1012.7 |
| 20260831200104 | 77 | 59 | 5.0 | 13.0 | 0.00 | 0.00 | 0.00 | 41 | 1013.0 |
| 20260831194532 | 76 | 78 | 4.0 | 14.0 | 0.00 | 0.00 | 0.00 | 42 | 1013.2 |
| 20260831193030 | 75 | 70 | 5.0 | 13.0 | 0.00 | 0.00 | 0.00 | 41 | 1013.5 |
| 20260831191535 | 75 | 39 | 4.0 | 14.0 | 0.00 | 0.00 | 0.00 | 44 | 1013.8 |
| 20260831183105 | 73 | 46 | 4.0 | 11.0 | 0.00 | 0.00 | 0.00 | 49 | 1014.7 |
| 20260831181532 | 72 | 31 | 4.0 | 10.0 | 0.00 | 0.00 | 0.00 | 55 | 1014.9 |
| 20260831180031 | 69 | 349 | 2.0 | 6.0 | 0.00 | 0.00 | 0.00 | 62 | 1015.1 |
| 20260831173030 | 65 | 295 | 1.0 | 3.0 | 0.00 | 0.00 | 0.00 | 66 | 1015.5 |
| 20260831171528 | 64 | 315 | 1.0 | 4.0 | 0.00 | 0.00 | 0.00 | 67 | 1015.7 |
| 20260831170031 | 63 | 313 | 1.0 | 3.0 | 0.00 | 0.00 | 0.00 | 69 | 1015.9 |
| 20260831163028 | 60 | 347 | 0.0 | 2.0 | 0.00 | 0.00 | 0.00 | 81 | 1016.3 |
| 20260831161535 | 58 | 294 | 0.0 | 1.0 | 0.00 | 0.00 | 0.00 | 86 | 1016.5 |
| 20260831160031 | 56 | 270 | 0.0 | 0.0 | 0.00 | 0.00 | 0.00 | 90 | 1016.7 |
| 20260831154531 | 54 | 270 | 0.0 | 1.0 | 0.00 | 0.00 | 0.00 | 93 | 1016.8 |
| 20260831153031 | 52 | 182 | 0.0 | 0.0 | 0.00 | 0.00 | 0.00 | 95 | 1016.9 |
| 20260831150029 | 48 | 180 | 0.0 | 0.0 | 0.00 | 0.00 | 0.00 | 96 | 1016.8 |
| 20260831144531 | 46 | 180 | 0.0 | 0.0 | 0.00 | 0.00 | 0.00 | 96 | 1016.8 |
| 20260831143029 | 45 | 180 | 0.0 | 1.0 | 0.00 | 0.00 | 0.00 | 96 | 1016.9 |
| 20260831141532 | 44 | 180 | 1.0 | 3.0 | 0.00 | 0.00 | 0.00 | 96 | 1016.8 |
| 20260831140030 | 43 | 180 | 1.0 | 2.0 | 0.00 | 0.00 | 0.00 | 96 | 1016.6 |
| 20260831134531 | 43 | 180 | 0.0 | 0.0 | 0.00 | 0.00 | 0.00 | 96 | 1016.6 |
| 20260831133033 | 43 | 180 | 0.0 | 0.0 | 0.00 | 0.00 | 0.00 | 96 | 1016.6 |
| 20260831131537 | 44 | 180 | 0.0 | 0.0 | 0.00 | 0.00 | 0.00 | 95 | 1016.6 |
| 20260831130038 | 44 | 180 | 0.0 | 0.0 | 0.00 | 0.00 | 0.00 | 95 | 1016.6 |
| 20260831123152 | 45 | 180 | 0.0 | 0.0 | 0.00 | 0.00 | 0.00 | 95 | 1016.5 |
| 20260831121531 | 45 | 180 | 0.0 | 2.0 | 0.00 | 0.00 | 0.00 | 95 | 1016.5 |
| 20260831120029 | 45 | 180 | 0.0 | 0.0 | 0.00 | 0.00 | 0.00 | 95 | 1016.5 |
| 20260831114531 | 46 | 180 | 0.0 | 2.0 | 0.00 | 0.00 | 0.00 | 95 | 1016.6 |
| 20260831113036 | 45 | 180 | 1.0 | 2.0 | 0.00 | 0.00 | 0.00 | 95 | 1016.6 |
| 20260831111531 | 46 | 180 | 0.0 | 0.0 | 0.00 | 0.00 | 0.00 | 95 | 1016.6 |
| 20260831110030 | 46 | 180 | 0.0 | 0.0 | 0.00 | 0.00 | 0.00 | 95 | 1016.6 |
| 20260831103107 | 46 | 180 | 0.0 | 2.0 | 0.00 | 0.00 | 0.00 | 94 | 1016.6 |
| 20260831101528 | 47 | 180 | 0.0 | 2.0 | 0.00 | 0.00 | 0.00 | 94 | 1016.6 |
| 20260831100143 | 47 | 180 | 0.0 | 2.0 | 0.00 | 0.00 | 0.00 | 94 | 1016.8 |
| 20260831093030 | 47 | 180 | 0.0 | 2.0 | 0.00 | 0.00 | 0.00 | 94 | 1016.9 |
| 20260831091529 | 48 | 180 | 0.0 | 2.0 | 0.00 | 0.00 | 0.00 | 94 | 1017.0 |
| 20260831090032 | 48 | 180 | 0.0 | 2.0 | 0.00 | 0.00 | 0.00 | 93 | 1017.0 |
| 20260831084529 | 48 | 180 | 0.0 | 2.0 | 0.00 | 0.00 | 0.00 | 93 | 1017.1 |
| 20260831083144 | 48 | 180 | 0.0 | 1.0 | 0.00 | 0.00 | 0.00 | 93 | 1017.1 |
| 20260831081530 | 49 | 180 | 0.0 | 2.0 | 0.00 | 0.00 | 0.00 | 93 | 1017.3 |
| 20260831080029 | 49 | 180 | 0.0 | 0.0 | 0.00 | 0.00 | 0.00 | 92 | 1017.3 |
| 20260831074533 | 49 | 180 | 0.0 | 2.0 | 0.00 | 0.00 | 0.00 | 92 | 1017.3 |
| 20260831073030 | 50 | 180 | 0.0 | 3.0 | 0.00 | 0.00 | 0.00 | 92 | 1017.3 |
| 20260831071531 | 50 | 180 | 0.0 | 2.0 | 0.00 | 0.00 | 0.00 | 92 | 1017.4 |
| 20260831070030 | 51 | 182 | 0.0 | 3.0 | 0.00 | 0.00 | 0.00 | 92 | 1017.4 |
| 20260831063031 | 51 | 152 | 0.0 | 3.0 | 0.00 | 0.00 | 0.00 | 91 | 1017.5 |
| 20260831061529 | 51 | 135 | 0.0 | 3.0 | 0.00 | 0.00 | 0.00 | 90 | 1017.6 |
| 20260831060032 | 52 | 135 | 1.0 | 3.0 | 0.00 | 0.00 | 0.00 | 90 | 1017.6 |
| 20260831054530 | 53 | 135 | 0.0 | 2.0 | 0.00 | 0.00 | 0.00 | 89 | 1017.7 |
| 20260831053034 | 53 | 147 | 1.0 | 3.0 | 0.00 | 0.00 | 0.00 | 88 | 1017.7 |
| 20260831050030 | 55 | 180 | 0.0 | 0.0 | 0.00 | 0.00 | 0.00 | 86 | 1017.7 |
| 20260831044531 | 55 | 184 | 1.0 | 3.0 | 0.00 | 0.00 | 0.00 | 86 | 1017.7 |
| 20260831043029 | 55 | 183 | 1.0 | 4.0 | 0.00 | 0.00 | 0.00 | 85 | 1017.6 |
| 20260831041531 | 56 | 185 | 1.0 | 3.0 | 0.00 | 0.00 | 0.00 | 83 | 1017.7 |
| 20260831040032 | 57 | 178 | 0.0 | 4.0 | 0.00 | 0.00 | 0.00 | 81 | 1017.6 |
| 20260831034528 | 58 | 157 | 2.0 | 4.0 | 0.00 | 0.00 | 0.00 | 80 | 1017.3 |
| 20260831033029 | 59 | 157 | 3.0 | 4.0 | 0.00 | 0.00 | 0.00 | 78 | 1017.1 |
| 20260831031532 | 60 | 181 | 1.0 | 4.0 | 0.00 | 0.00 | 0.00 | 76 | 1017.0 |